| time (UTC) | temp F | wind direction | speed knots | gust knots | rain 1hr in | rain 24hr in | rain mn in | humidity % | barometer mb |
| 20260508005332 | 65 | 82 | 0.0 | 0.0 | 0.00 | 0.00 | 0.68 | 97 | |
| 20260508004730 | 65 | 81 | 0.0 | 0.0 | 0.00 | 0.00 | 0.68 | 97 | |
| 20260508004434 | 65 | 82 | 0.0 | 0.9 | 0.00 | 0.00 | 0.68 | 97 | |
| 20260508004133 | 65 | 80 | 0.0 | 0.0 | 0.00 | 0.00 | 0.68 | 97 | |
| 20260508003826 | 65 | 79 | 0.9 | 1.7 | 0.00 | 0.00 | 0.68 | 97 | |
| 20260508003529 | 65 | 98 | 2.6 | 3.5 | 0.00 | 0.00 | 0.67 | 97 | |
| 20260508003226 | 65 | 112 | 0.9 | 0.9 | 0.00 | 0.00 | 0.66 | 97 | |
| 20260508002928 | 65 | 111 | 0.9 | 0.9 | 0.00 | 0.00 | 0.65 | 97 | |
| 20260508002632 | 65 | 128 | 0.0 | 0.9 | 0.00 | 0.00 | 0.64 | 97 | |
| 20260508002331 | 65 | 128 | 0.0 | 0.0 | 0.00 | 0.00 | 0.62 | 97 | |
| 20260508002032 | 65 | 128 | 0.0 | 0.0 | 0.00 | 0.00 | 0.60 | 97 | |
| 20260508001726 | 65 | 128 | 0.0 | 0.0 | 0.00 | 0.00 | 0.57 | 97 | |
| 20260508001428 | 66 | 128 | 0.0 | 0.0 | 0.00 | 0.00 | 0.54 | 97 | |
| 20260508001132 | 66 | 128 | 0.0 | 0.0 | 0.00 | 0.00 | 0.51 | 97 | |
| 20260508000829 | 65 | 128 | 0.0 | 0.0 | 0.00 | 0.00 | 0.50 | 97 | |
| 20260508000235 | 65 | 128 | 0.0 | 0.0 | 0.00 | 0.00 | 0.50 | 97 | |
| 20260507235926 | 66 | 128 | 0.0 | 0.9 | 0.00 | 0.00 | 0.49 | 97 | |
| 20260507235632 | 66 | 120 | 0.0 | 1.7 | 0.00 | 0.00 | 0.48 | 97 | |
| 20260507235330 | 65 | 243 | 0.9 | 0.9 | 0.00 | 0.00 | 0.45 | 97 | |
| 20260507235031 | 65 | 242 | 0.0 | 0.0 | 0.00 | 0.00 | 0.42 | 97 | |
| 20260507234728 | 65 | 242 | 0.0 | 0.0 | 0.00 | 0.00 | 0.39 | 97 | |
| 20260507234442 | 65 | 242 | 0.9 | 0.9 | 0.00 | 0.00 | 0.38 | 97 | |
| 20260507234130 | 65 | 244 | 0.0 | 0.9 | 0.00 | 0.00 | 0.38 | 97 | |
| 20260507233837 | 65 | 242 | 0.0 | 0.9 | 0.00 | 0.00 | 0.38 | 97 | |
| 20260507233528 | 65 | 242 | 0.0 | 0.9 | 0.00 | 0.00 | 0.38 | 97 | |
| 20260507233244 | 65 | 243 | 0.0 | 0.9 | 0.00 | 0.00 | 0.38 | 97 | |
| 20260507232934 | 65 | 243 | 0.0 | 0.9 | 0.00 | 0.00 | 0.38 | 97 | |
| 20260507232625 | 65 | 244 | 0.9 | 1.7 | 0.00 | 0.00 | 0.38 | 96 | |
| 20260507232037 | 65 | 110 | 0.9 | 1.7 | 0.00 | 0.00 | 0.38 | 97 | |
| 20260507231737 | 65 | 76 | 0.0 | 0.9 | 0.00 | 0.00 | 0.38 | 97 | |
| 20260507231434 | 65 | 75 | 0.0 | 0.0 | 0.00 | 0.00 | 0.38 | 97 | |
| 20260507231135 | 65 | 75 | 0.0 | 0.0 | 0.00 | 0.00 | 0.38 | 97 | |
| 20260507230834 | 65 | 75 | 0.0 | 0.0 | 0.00 | 0.00 | 0.38 | 96 | |
| 20260507230536 | 65 | 75 | 0.0 | 0.0 | 0.00 | 0.00 | 0.38 | 97 | |
| 20260507230248 | 65 | 75 | 0.0 | 0.0 | 0.00 | 0.00 | 0.38 | 96 | |
| 20260507225935 | 65 | 75 | 0.0 | 0.9 | 0.00 | 0.00 | 0.38 | 96 | |
| 20260507225635 | 65 | 75 | 0.0 | 0.0 | 0.00 | 0.00 | 0.38 | 96 | |
| 20260507225335 | 65 | 75 | 0.0 | 0.0 | 0.00 | 0.00 | 0.38 | 96 | |
| 20260507225034 | 65 | 75 | 0.0 | 0.0 | 0.00 | 0.00 | 0.38 | 96 | |
| 20260507224734 | 65 | 75 | 0.0 | 0.0 | 0.00 | 0.00 | 0.38 | 96 | |
| 20260507224427 | 65 | 75 | 0.0 | 1.7 | 0.00 | 0.00 | 0.38 | 96 | |
| 20260507223833 | 65 | 67 | 0.9 | 0.9 | 0.00 | 0.00 | 0.38 | 96 | |
| 20260507223528 | 65 | 66 | 0.9 | 0.9 | 0.00 | 0.00 | 0.38 | 96 | |
| 20260507223238 | 65 | 66 | 0.0 | 0.0 | 0.00 | 0.00 | 0.38 | 96 | |
| 20260507222927 | 65 | 66 | 0.0 | 0.9 | 0.00 | 0.00 | 0.38 | 96 | |
| 20260507222630 | 65 | 64 | 0.0 | 0.9 | 0.00 | 0.00 | 0.38 | 96 | |
| 20260507222335 | 65 | 34 | 1.7 | 0.9 | 0.00 | 0.00 | 0.38 | 96 | |
| 20260507222036 | 65 | 32 | 0.0 | 0.9 | 0.00 | 0.00 | 0.38 | 96 | |
| 20260507221737 | 65 | 32 | 0.9 | 0.9 | 0.00 | 0.00 | 0.38 | 96 | |
| 20260507221436 | 65 | 32 | 0.9 | 1.7 | 0.00 | 0.00 | 0.38 | 96 | |
| 20260507221137 | 65 | 34 | 0.9 | 0.9 | 0.00 | 0.00 | 0.38 | 96 | |
| 20260507220832 | 65 | 34 | 1.7 | 1.7 | 0.00 | 0.00 | 0.38 | 96 | |
| 20260507220534 | 65 | 108 | 0.0 | 0.9 | 0.00 | 0.00 | 0.38 | 96 | |
| 20260507215933 | 65 | 259 | 0.0 | 0.9 | 0.00 | 0.00 | 0.38 | 96 | |
| 20260507214433 | 65 | 242 | 0.9 | 0.9 | 0.00 | 0.00 | 0.37 | 96 | |
| 20260507213833 | 65 | 242 | 1.7 | 2.6 | 0.00 | 0.00 | 0.36 | 96 | |
| 20260507213539 | 65 | 214 | 1.7 | 1.7 | 0.00 | 0.00 | 0.36 | 96 | |
| 20260507213232 | 65 | 236 | 0.9 | 0.9 | 0.00 | 0.00 | 0.36 | 96 | |
| 20260507212939 | 64 | 236 | 0.9 | 0.9 | 0.00 | 0.00 | 0.36 | 96 | |
| 20260507212633 | 65 | 234 | 0.9 | 1.7 | 0.00 | 0.00 | 0.36 | 96 | |
| 20260507212329 | 65 | 234 | 0.9 | 1.7 | 0.00 | 0.00 | 0.36 | 96 | |
| 20260507212028 | 65 | 134 | 0.0 | 0.9 | 0.00 | 0.00 | 0.36 | 96 | |
| 20260507211731 | 65 | 134 | 0.0 | 1.7 | 0.00 | 0.00 | 0.36 | 96 | |
| 20260507211438 | 65 | 50 | 1.7 | 1.7 | 0.00 | 0.00 | 0.36 | 96 | |
| 20260507211132 | 66 | 123 | 0.0 | 1.7 | 0.00 | 0.00 | 0.36 | 96 | |
| 20260507210837 | 66 | 124 | 0.9 | 0.9 | 0.00 | 0.00 | 0.36 | 96 | |
| 20260507210545 | 66 | 124 | 0.9 | 0.9 | 0.00 | 0.00 | 0.36 | 96 | |
| 20260507210237 | 65 | 126 | 1.7 | 1.7 | 0.00 | 0.00 | 0.36 | 96 | |
| 20260507205933 | 66 | 114 | 0.9 | 1.7 | 0.00 | 0.00 | 0.36 | 96 | |
| 20260507205336 | 66 | 114 | 1.7 | 2.6 | 0.00 | 0.00 | 0.36 | 96 | |
| 20260507205038 | 66 | 141 | 0.9 | 0.9 | 0.00 | 0.00 | 0.36 | 96 | |
| 20260507204738 | 66 | 219 | 0.9 | 1.7 | 0.00 | 0.00 | 0.36 | 96 | |
| 20260507204439 | 66 | 94 | 0.9 | 1.7 | 0.00 | 0.00 | 0.36 | 96 | |
| 20260507204135 | 65 | 68 | 0.9 | 1.7 | 0.00 | 0.00 | 0.36 | 96 | |
| 20260507203846 | 64 | 216 | 0.9 | 1.7 | 0.00 | 0.00 | 0.36 | 96 | |
| 20260507203539 | 64 | 137 | 1.7 | 2.6 | 0.00 | 0.00 | 0.36 | 96 | |
| 20260507203239 | 64 | 139 | 1.7 | 2.6 | 0.00 | 0.00 | 0.36 | 96 | |
| 20260507202933 | 65 | 104 | 2.6 | 6.1 | 0.00 | 0.00 | 0.36 | 96 | |
| 20260507202629 | 65 | 95 | 3.5 | 3.5 | 0.00 | 0.00 | 0.36 | 96 | |
| 20260507202341 | 66 | 151 | 3.5 | 5.2 | 0.00 | 0.00 | 0.36 | 96 | |
| 20260507202031 | 65 | 139 | 2.6 | 3.5 | 0.00 | 0.00 | 0.36 | 96 | |
| 20260507201751 | 65 | 108 | 0.0 | 1.7 | 0.00 | 0.00 | 0.36 | 96 | |
| 20260507201436 | 65 | 306 | 1.7 | 2.6 | 0.00 | 0.00 | 0.36 | 96 | |
| 20260507201140 | 66 | 80 | 1.7 | 2.6 | 0.00 | 0.00 | 0.36 | 96 | |
| 20260507200836 | 65 | 91 | 1.7 | 6.1 | 0.00 | 0.00 | 0.36 | 96 | |
| 20260507200533 | 65 | 101 | 4.3 | 5.2 | 0.00 | 0.00 | 0.36 | 96 | |
| 20260507200245 | 66 | 118 | 5.2 | 6.1 | 0.00 | 0.00 | 0.35 | 96 | |
| 20260507195930 | 65 | 69 | 1.7 | 2.6 | 0.00 | 0.00 | 0.32 | 96 | |
| 20260507195638 | 65 | 350 | 0.9 | 2.6 | 0.00 | 0.00 | 0.31 | 96 | |
| 20260507195038 | 65 | 72 | 0.9 | 0.9 | 0.00 | 0.00 | 0.30 | 96 | |
| 20260507194739 | 66 | 80 | 0.0 | 0.9 | 0.00 | 0.00 | 0.29 | 96 | |
| 20260507194437 | 66 | 81 | 0.9 | 1.7 | 0.00 | 0.00 | 0.27 | 96 | |
| 20260507194139 | 66 | 48 | 0.9 | 7.8 | 0.00 | 0.00 | 0.24 | 96 | |
| 20260507193834 | 66 | 39 | 0.9 | 1.7 | 0.00 | 0.00 | 0.20 | 96 | |
| 20260507193533 | 66 | 134 | 0.9 | 2.6 | 0.00 | 0.00 | 0.16 | 96 | |
| 20260507193240 | 66 | 82 | 0.9 | 2.6 | 0.00 | 0.00 | 0.10 | 96 | |
| 20260507192931 | 66 | 125 | 1.7 | 1.7 | 0.00 | 0.00 | 0.08 | 96 | |
| 20260507192638 | 66 | 93 | 0.0 | 0.9 | 0.00 | 0.00 | 0.08 | 96 | |
| 20260507192330 | 67 | 93 | 0.0 | 1.7 | 0.00 | 0.00 | 0.07 | 96 | |
| 20260507192054 | 66 | 98 | 0.9 | 1.7 | 0.00 | 0.00 | 0.03 | 96 | |
| 20260507191745 | 65 | 101 | 0.0 | 0.9 | 0.00 | 0.00 | 0.02 | 96 | |
| 20260507191440 | 66 | 101 | 0.0 | 0.9 | 0.00 | 0.00 | 0.02 | 96 | |
| 20260507191154 | 66 | 101 | 0.0 | 1.7 | 0.00 | 0.00 | 0.01 | 96 | |
| 20260507190838 | 66 | 118 | 1.7 | 3.5 | 0.00 | 0.00 | 0.01 | 96 | |
| 20260507190543 | 66 | 51 | 1.7 | 2.6 | 0.00 | 0.00 | 0.01 | 96 | |
| 20260507190231 | 65 | 48 | 3.5 | 3.5 | 0.00 | 0.00 | 0.01 | 96 | |
| 20260507185942 | 65 | 157 | 5.2 | 7.8 | 0.00 | 0.00 | 0.01 | 96 | |
| 20260507185640 | 65 | 160 | 3.5 | 5.2 | 0.00 | 0.00 | 0.01 | 96 | |
| 20260507185340 | 65 | 133 | 1.7 | 6.1 | 0.00 | 0.00 | 0.01 | 96 | |
| 20260507185033 | 65 | 155 | 4.3 | 6.1 | 0.00 | 0.00 | 0.01 | 96 | |
| 20260507184742 | 65 | 127 | 1.7 | 1.7 | 0.00 | 0.00 | 0.01 | 96 | |
| 20260507184436 | 66 | 78 | 1.7 | 2.6 | 0.00 | 0.00 | 0.00 | 95 | |
| 20260507184134 | 66 | 268 | 3.5 | 7.0 | 0.00 | 0.00 | 0.00 | 95 | |
| 20260507183834 | 66 | 119 | 0.9 | 2.6 | 0.00 | 0.00 | 0.00 | 95 | |
| 20260507183541 | 66 | 288 | 5.2 | 6.1 | 0.00 | 0.00 | 0.00 | 95 | |
| 20260507183244 | 66 | 140 | 0.0 | 3.5 | 0.00 | 0.00 | 0.00 | 95 | |
| 20260507182944 | 65 | 76 | 1.7 | 2.6 | 0.00 | 0.00 | 0.00 | 95 | |
| 20260507182637 | 65 | 264 | 1.7 | 2.6 | 0.00 | 0.00 | 0.00 | 95 | |
| 20260507182341 | 66 | 295 | 1.7 | 2.6 | 0.00 | 0.00 | 0.00 | 95 | |
| 20260507182040 | 65 | 115 | 1.7 | 2.6 | 0.00 | 0.00 | 0.00 | 95 | |
| 20260507181740 | 65 | 63 | 0.9 | 5.2 | 0.00 | 0.00 | 0.00 | 95 | |
| 20260507181457 | 65 | 90 | 3.5 | 7.0 | 0.00 | 0.00 | 0.00 | 95 | |
| 20260507181142 | 66 | 92 | 1.7 | 5.2 | 0.00 | 0.00 | 0.00 | 95 | |
| 20260507180838 | 65 | 79 | 1.7 | 1.7 | 0.00 | 0.00 | 0.00 | 95 | |
| 20260507180727 | 65 | 80 | 0.9 | 2.6 | 0.00 | 0.00 | 0.00 | 95 | |
| 20260507180543 | 65 | 76 | 1.7 | 3.5 | 0.00 | 0.00 | 0.00 | 94 | |
| 20260507180240 | 65 | 57 | 0.9 | 1.7 | 0.00 | 0.00 | 0.00 | 94 | |
| 20260507175943 | 66 | 90 | 0.9 | 3.5 | 0.00 | 0.00 | 0.00 | 94 | |
| 20260507175701 | 66 | 132 | 0.0 | 0.9 | 0.00 | 0.00 | 0.00 | 95 | |
| 20260507175636 | 66 | 132 | 0.9 | 0.9 | 0.00 | 0.00 | 0.00 | 95 | |
| 20260507175252 | 66 | 85 | 0.9 | 7.8 | 0.00 | 0.00 | 0.00 | 94 | |
| 20260507175139 | 66 | 64 | 6.1 | 7.8 | 0.00 | 0.00 | 0.00 | 94 | |
| 20260507175038 | 67 | 334 | 1.7 | 6.1 | 0.00 | 0.00 | 0.00 | 94 | |
| 20260507174738 | 67 | 101 | 0.9 | 1.7 | 0.00 | 0.00 | 0.00 | 94 | |
| 20260507174440 | 67 | 289 | 1.7 | 2.6 | 0.00 | 0.00 | 0.00 | 94 | |
| 20260507174145 | 67 | 276 | 2.6 | 2.6 | 0.00 | 0.00 | 0.00 | 93 | |
| 20260507173835 | 67 | 330 | 2.6 | 3.5 | 0.00 | 0.00 | 0.00 | 93 | |
| 20260507173537 | 68 | 359 | 4.3 | 5.2 | 0.00 | 0.00 | 0.00 | 92 | |
| 20260507173235 | 68 | 157 | 0.9 | 3.5 | 0.00 | 0.00 | 0.00 | 91 | |
| 20260507172942 | 68 | 321 | 0.0 | 3.5 | 0.00 | 0.00 | 0.00 | 90 | |
| 20260507172918 | 68 | 318 | 0.9 | 3.5 | 0.00 | 0.00 | 0.00 | 90 | |
| 20260507172635 | 67 | 82 | 0.9 | 1.7 | 0.00 | 0.00 | 0.00 | 91 | |
| 20260507172338 | 68 | 80 | 2.6 | 2.6 | 0.00 | 0.00 | 0.00 | 91 | |
| 20260507172038 | 67 | 95 | 3.5 | 5.2 | 0.00 | 0.00 | 0.00 | 90 | |
| 20260507171756 | 69 | 16 | 1.7 | 5.2 | 0.00 | 0.00 | 0.00 | 89 | |
| 20260507171444 | 70 | 122 | 0.9 | 1.7 | 0.00 | 0.00 | 0.00 | 89 | |
| 20260507171140 | 68 | 102 | 0.9 | 1.7 | 0.00 | 0.00 | 0.00 | 91 | |
| 20260507170843 | 68 | 340 | 1.7 | 3.5 | 0.00 | 0.00 | 0.00 | 90 | |
| 20260507170542 | 69 | 91 | 1.7 | 3.5 | 0.00 | 0.00 | 0.00 | 88 | |
| 20260507170240 | 69 | 107 | 1.7 | 1.7 | 0.00 | 0.00 | 0.00 | 87 | |
| 20260507165635 | 69 | 354 | 0.9 | 0.9 | 0.00 | 0.00 | 0.00 | 88 | |
| 20260507165345 | 68 | 354 | 0.0 | 0.9 | 0.00 | 0.00 | 0.00 | 89 | |
| 20260507165046 | 69 | 22 | 0.9 | 1.7 | 0.00 | 0.00 | 0.00 | 88 | |
| 20260507164741 | 70 | 64 | 0.0 | 0.9 | 0.00 | 0.00 | 0.00 | 87 | |
| 20260507164446 | 72 | 61 | 1.7 | 3.5 | 0.00 | 0.00 | 0.00 | 84 | |
| 20260507164139 | 70 | 57 | 0.9 | 1.7 | 0.00 | 0.00 | 0.00 | 83 | |
| 20260507163839 | 71 | 289 | 2.6 | 6.1 | 0.00 | 0.00 | 0.00 | 78 | |
| 20260507163543 | 69 | 186 | 0.9 | 2.6 | 0.00 | 0.00 | 0.00 | 84 | |
| 20260507163241 | 71 | 183 | 3.5 | 5.2 | 0.00 | 0.00 | 0.00 | 80 | |
| 20260507162948 | 73 | 110 | 2.6 | 5.2 | 0.00 | 0.00 | 0.00 | 80 | |
| 20260507162644 | 74 | 105 | 0.0 | 2.6 | 0.00 | 0.00 | 0.00 | 78 | |
| 20260507162336 | 71 | 90 | 0.9 | 0.9 | 0.00 | 0.00 | 0.00 | 73 | |
| 20260507162037 | 70 | 84 | 0.9 | 1.7 | 0.00 | 0.00 | 0.00 | 79 | |
| 20260507161747 | 69 | 84 | 0.9 | 1.7 | 0.00 | 0.00 | 0.00 | 84 | |
| 20260507161438 | 69 | 98 | 1.7 | 2.6 | 0.00 | 0.00 | 0.00 | 87 | |
| 20260507161137 | 68 | 266 | 1.7 | 2.6 | 0.00 | 0.00 | 0.00 | 80 | |
| 20260507160848 | 69 | 246 | 0.9 | 5.2 | 0.00 | 0.00 | 0.00 | 82 | |
| 20260507160544 | 71 | 123 | 2.6 | 6.1 | 0.00 | 0.00 | 0.00 | 82 | |
| 20260507160237 | 70 | 182 | 2.6 | 2.6 | 0.00 | 0.00 | 0.00 | 82 | |
| 20260507160009 | 68 | 127 | 3.5 | 3.5 | 0.00 | 0.00 | 0.00 | 80 | |
| 20260507155344 | 68 | 67 | 1.7 | 3.5 | 0.00 | 0.00 | 0.00 | 86 | |
| 20260507155036 | 69 | 152 | 0.9 | 7.0 | 0.00 | 0.00 | 0.00 | 84 | |
| 20260507154739 | 70 | 57 | 0.9 | 1.7 | 0.00 | 0.00 | 0.00 | 84 | |
| 20260507154444 | 70 | 154 | 1.7 | 2.6 | 0.00 | 0.00 | 0.00 | 85 | |
| 20260507154145 | 71 | 85 | 1.7 | 2.6 | 0.00 | 0.00 | 0.00 | 83 | |
| 20260507153838 | 71 | 61 | 0.0 | 5.2 | 0.00 | 0.00 | 0.00 | 83 | |
| 20260507153543 | 69 | 123 | 0.9 | 2.6 | 0.00 | 0.00 | 0.00 | 81 | |
| 20260507153236 | 70 | 133 | 1.7 | 5.2 | 0.00 | 0.00 | 0.00 | 79 | |
| 20260507152942 | 70 | 186 | 0.9 | 3.5 | 0.00 | 0.00 | 0.00 | 79 | |
| 20260507152646 | 70 | 118 | 2.6 | 3.5 | 0.00 | 0.00 | 0.00 | 81 | |
| 20260507152339 | 70 | 88 | 1.7 | 5.2 | 0.00 | 0.00 | 0.00 | 82 | |
| 20260507152042 | 68 | 146 | 1.7 | 2.6 | 0.00 | 0.00 | 0.00 | 84 | |
| 20260507151747 | 69 | 195 | 3.5 | 3.5 | 0.00 | 0.00 | 0.00 | 82 | |
| 20260507151439 | 70 | 93 | 0.9 | 2.6 | 0.00 | 0.00 | 0.00 | 79 | |
| 20260507151143 | 68 | 174 | 0.9 | 1.7 | 0.00 | 0.00 | 0.00 | 85 | |
| 20260507150837 | 68 | 145 | 2.6 | 3.5 | 0.00 | 0.00 | 0.00 | 82 | |
| 20260507150546 | 68 | 118 | 1.7 | 1.7 | 0.00 | 0.00 | 0.00 | 81 | |
| 20260507150248 | 68 | 134 | 0.9 | 0.9 | 0.00 | 0.00 | 0.00 | 82 | |
| 20260507150004 | 69 | 106 | 1.7 | 3.5 | 0.00 | 0.00 | 0.00 | 84 | |
| 20260507145340 | 69 | 157 | 1.7 | 3.5 | 0.00 | 0.00 | 0.00 | 83 | |
| 20260507145046 | 67 | 154 | 0.0 | 1.7 | 0.00 | 0.00 | 0.00 | 86 | |
| 20260507144739 | 68 | 113 | 2.6 | 6.1 | 0.00 | 0.00 | 0.00 | 84 | |
| 20260507144443 | 69 | 116 | 1.7 | 3.5 | 0.00 | 0.00 | 0.00 | 85 | |
| 20260507144145 | 68 | 115 | 0.9 | 1.7 | 0.00 | 0.00 | 0.00 | 82 | |
| 20260507143839 | 68 | 123 | 0.9 | 2.6 | 0.00 | 0.00 | 0.00 | 81 | |
| 20260507143543 | 66 | 97 | 0.9 | 0.9 | 0.00 | 0.00 | 0.00 | 84 | |
| 20260507143248 | 67 | 90 | 1.7 | 1.7 | 0.00 | 0.00 | 0.00 | 86 | |
| 20260507142942 | 68 | 139 | 0.9 | 0.9 | 0.00 | 0.00 | 0.00 | 82 | |
| 20260507142645 | 70 | 133 | 1.7 | 2.6 | 0.00 | 0.00 | 0.00 | 78 | |
| 20260507142349 | 70 | 50 | 1.7 | 2.6 | 0.00 | 0.00 | 0.00 | 82 | |
| 20260507142042 | 67 | 285 | 1.7 | 2.6 | 0.00 | 0.00 | 0.00 | 80 | |
| 20260507141740 | 67 | 234 | 1.7 | 3.5 | 0.00 | 0.00 | 0.00 | 77 | |
| 20260507141445 | 67 | 189 | 0.9 | 2.6 | 0.00 | 0.00 | 0.00 | 85 | |
| 20260507141148 | 67 | 102 | 0.9 | 3.5 | 0.00 | 0.00 | 0.00 | 83 | |
| 20260507140848 | 68 | 148 | 5.2 | 7.0 | 0.00 | 0.00 | 0.00 | 82 | |
| 20260507140543 | 68 | 237 | 1.7 | 3.5 | 0.00 | 0.00 | 0.00 | 81 | |
| 20260507140249 | 68 | 134 | 1.7 | 3.5 | 0.00 | 0.00 | 0.00 | 82 | |
| 20260507140002 | 68 | 94 | 2.6 | 5.2 | 0.00 | 0.00 | 0.00 | 81 | |
| 20260507135341 | 69 | 237 | 0.9 | 2.6 | 0.00 | 0.00 | 0.00 | 82 | |
| 20260507135046 | 68 | 129 | 0.9 | 2.6 | 0.00 | 0.00 | 0.00 | 81 | |
| 20260507134740 | 68 | 135 | 0.9 | 1.7 | 0.00 | 0.00 | 0.00 | 82 | |
| 20260507134444 | 68 | 131 | 2.6 | 3.5 | 0.00 | 0.00 | 0.00 | 83 | |
| 20260507134147 | 66 | 82 | 0.0 | 2.6 | 0.00 | 0.00 | 0.00 | 85 | |
| 20260507133840 | 66 | 166 | 2.6 | 3.5 | 0.00 | 0.00 | 0.00 | 85 | |
| 20260507133546 | 67 | 150 | 1.7 | 6.1 | 0.00 | 0.00 | 0.00 | 84 | |
| 20260507133240 | 67 | 76 | 1.7 | 2.6 | 0.00 | 0.00 | 0.00 | 84 | |
| 20260507132945 | 67 | 151 | 0.9 | 2.6 | 0.00 | 0.00 | 0.00 | 82 | |
| 20260507132648 | 67 | 30 | 1.7 | 2.6 | 0.00 | 0.00 | 0.00 | 85 | |
| 20260507132343 | 67 | 141 | 1.7 | 5.2 | 0.00 | 0.00 | 0.00 | 84 | |
| 20260507132048 | 67 | 73 | 2.6 | 2.6 | 0.00 | 0.00 | 0.00 | 85 | |
| 20260507131741 | 67 | 116 | 1.7 | 2.6 | 0.00 | 0.00 | 0.00 | 85 | |
| 20260507131446 | 66 | 72 | 3.5 | 5.2 | 0.00 | 0.00 | 0.00 | 85 | |
| 20260507131150 | 66 | 260 | 3.5 | 7.0 | 0.00 | 0.00 | 0.00 | 84 | |
| 20260507130844 | 67 | 104 | 2.6 | 5.2 | 0.00 | 0.00 | 0.00 | 87 | |
| 20260507130548 | 66 | 65 | 2.6 | 3.5 | 0.00 | 0.00 | 0.00 | 87 | |
| 20260507130241 | 66 | 171 | 5.2 | 10.4 | 0.00 | 0.00 | 0.00 | 87 | |
| 20260507130009 | 66 | 147 | 7.8 | 8.7 | 0.00 | 0.00 | 0.00 | 86 | |
| 20260507125348 | 66 | 183 | 4.3 | 7.0 | 0.00 | 0.00 | 0.00 | 85 | |
| 20260507125043 | 65 | 106 | 5.2 | 7.8 | 0.00 | 0.00 | 0.00 | 88 | |
| 20260507124747 | 65 | 131 | 4.3 | 7.8 | 0.00 | 0.00 | 0.00 | 89 | |
| 20260507124451 | 64 | 321 | 3.5 | 6.1 | 0.00 | 0.00 | 0.00 | 91 | |
| 20260507124144 | 65 | 142 | 3.5 | 7.0 | 0.00 | 0.00 | 0.00 | 89 | |
| 20260507123848 | 65 | 123 | 3.5 | 12.2 | 0.00 | 0.00 | 0.00 | 90 | |
| 20260507123552 | 65 | 103 | 2.6 | 7.0 | 0.00 | 0.00 | 0.00 | 89 | |
| 20260507123243 | 63 | 126 | 1.7 | 2.6 | 0.00 | 0.00 | 0.00 | 92 | |
| 20260507122947 | 64 | 153 | 5.2 | 7.0 | 0.00 | 0.00 | 0.00 | 92 | |
| 20260507122652 | 65 | 120 | 4.3 | 9.6 | 0.00 | 0.00 | 0.00 | 91 | |
| 20260507122346 | 65 | 107 | 2.6 | 7.8 | 0.00 | 0.00 | 0.00 | 91 | |
| 20260507122051 | 66 | 125 | 3.5 | 6.1 | 0.00 | 0.00 | 0.00 | 89 | |
| 20260507121745 | 67 | 124 | 1.7 | 3.5 | 0.00 | 0.00 | 0.00 | 86 | |
| 20260507121449 | 65 | 88 | 1.7 | 3.5 | 0.00 | 0.00 | 0.00 | 89 | |
| 20260507121143 | 65 | 97 | 1.7 | 6.1 | 0.00 | 0.00 | 0.00 | 88 | |
| 20260507120844 | 65 | 102 | 3.5 | 7.8 | 0.00 | 0.00 | 0.00 | 89 | |
| 20260507120549 | 65 | 104 | 4.3 | 7.8 | 0.00 | 0.00 | 0.00 | 88 | |
| 20260507120243 | 65 | 213 | 10.4 | 12.2 | 0.00 | 0.00 | 0.00 | 87 | |
| 20260507120006 | 66 | 70 | 5.2 | 9.6 | 0.00 | 0.00 | 0.00 | 87 | |
| 20260507115348 | 65 | 212 | 4.3 | 10.4 | 0.00 | 0.00 | 0.00 | 86 | |
| 20260507115052 | 65 | 118 | 2.6 | 7.8 | 0.00 | 0.00 | 0.00 | 87 | |
| 20260507114746 | 65 | 119 | 4.3 | 10.4 | 0.00 | 0.00 | 0.00 | 86 | |
| 20260507114450 | 66 | 107 | 4.3 | 8.7 | 0.00 | 0.00 | 0.00 | 85 | |
| 20260507114144 | 66 | 66 | 3.5 | 7.0 | 0.00 | 0.00 | 0.00 | 85 | |
| 20260507113848 | 66 | 114 | 1.7 | 8.7 | 0.00 | 0.00 | 0.00 | 85 | |
| 20260507113552 | 65 | 88 | 4.3 | 7.8 | 0.00 | 0.00 | 0.00 | 84 | |
| 20260507113246 | 65 | 130 | 2.6 | 7.8 | 0.00 | 0.00 | 0.00 | 85 | |
| 20260507112949 | 66 | 125 | 5.2 | 9.6 | 0.00 | 0.00 | 0.00 | 83 | |
| 20260507112644 | 66 | 128 | 6.1 | 7.0 | 0.00 | 0.00 | 0.00 | 84 | |
| 20260507112350 | 66 | 120 | 3.5 | 7.0 | 0.00 | 0.00 | 0.00 | 85 | |
| 20260507112043 | 66 | 124 | 1.7 | 3.5 | 0.00 | 0.00 | 0.00 | 84 | |
| 20260507111748 | 66 | 120 | 2.6 | 9.6 | 0.00 | 0.00 | 0.00 | 83 | |
| 20260507111453 | 66 | 136 | 1.7 | 3.5 | 0.00 | 0.00 | 0.00 | 84 | |
| 20260507111145 | 66 | 104 | 2.6 | 5.2 | 0.00 | 0.00 | 0.00 | 85 | |
| 20260507110850 | 65 | 133 | 5.2 | 6.1 | 0.00 | 0.00 | 0.00 | 85 | |
| 20260507110544 | 65 | 109 | 6.1 | 7.0 | 0.00 | 0.00 | 0.00 | 86 | |
| 20260507110247 | 65 | 104 | 4.3 | 7.8 | 0.00 | 0.00 | 0.00 | 87 | |
| 20260507110003 | 65 | 124 | 3.5 | 7.0 | 0.00 | 0.00 | 0.00 | 88 | |
| 20260507105351 | 64 | 109 | 1.7 | 2.6 | 0.00 | 0.00 | 0.00 | 89 | |
| 20260507105045 | 64 | 116 | 2.6 | 2.6 | 0.00 | 0.00 | 0.00 | 89 | |
| 20260507104750 | 64 | 108 | 1.7 | 2.6 | 0.00 | 0.00 | 0.00 | 89 | |
| 20260507104453 | 64 | 113 | 3.5 | 6.1 | 0.00 | 0.00 | 0.00 | 90 | |
| 20260507104144 | 63 | 104 | 1.7 | 1.7 | 0.00 | 0.00 | 0.00 | 91 | |
| 20260507103847 | 63 | 104 | 1.7 | 2.6 | 0.00 | 0.00 | 0.00 | 91 | |
| 20260507103546 | 63 | 144 | 2.6 | 3.5 | 0.00 | 0.00 | 0.00 | 92 | |
| 20260507103246 | 63 | 113 | 2.6 | 5.2 | 0.00 | 0.00 | 0.00 | 94 | |
| 20260507102949 | 62 | 111 | 2.6 | 5.2 | 0.00 | 0.00 | 0.00 | 94 | |
| 20260507102645 | 62 | 118 | 2.6 | 2.6 | 0.00 | 0.00 | 0.00 | 94 | |
| 20260507102347 | 62 | 115 | 3.5 | 5.2 | 0.00 | 0.00 | 0.00 | 94 | |
| 20260507102051 | 62 | 133 | 0.9 | 2.6 | 0.00 | 0.00 | 0.00 | 94 | |
| 20260507101745 | 62 | 136 | 2.6 | 5.2 | 0.00 | 0.00 | 0.00 | 93 | |
| 20260507101450 | 63 | 108 | 3.5 | 5.2 | 0.00 | 0.00 | 0.00 | 92 | |
| 20260507101155 | 63 | 125 | 1.7 | 7.8 | 0.00 | 0.00 | 0.00 | 90 | |
| 20260507100849 | 63 | 104 | 5.2 | 9.6 | 0.00 | 0.00 | 0.00 | 90 | |
| 20260507100551 | 63 | 123 | 2.6 | 6.1 | 0.00 | 0.00 | 0.00 | 89 | |
| 20260507100245 | 63 | 106 | 4.3 | 7.0 | 0.00 | 0.00 | 0.00 | 89 | |
| 20260507100011 | 63 | 158 | 9.6 | 13.0 | 0.00 | 0.00 | 0.00 | 89 | |
| 20260507095354 | 63 | 117 | 5.2 | 7.0 | 0.00 | 0.00 | 0.00 | 91 | |
| 20260507095048 | 63 | 120 | 3.5 | 8.7 | 0.00 | 0.00 | 0.00 | 91 | |
| 20260507094751 | 63 | 123 | 3.5 | 5.2 | 0.00 | 0.00 | 0.00 | 91 | |
| 20260507094456 | 63 | 142 | 5.2 | 7.0 | 0.00 | 0.00 | 0.00 | 93 | |
| 20260507094149 | 63 | 122 | 2.6 | 5.2 | 0.00 | 0.00 | 0.00 | 93 | |
| 20260507093854 | 63 | 130 | 1.7 | 2.6 | 0.00 | 0.00 | 0.00 | 92 | |
| 20260507093549 | 63 | 124 | 3.5 | 5.2 | 0.00 | 0.00 | 0.00 | 92 | |
| 20260507093252 | 63 | 138 | 7.0 | 9.6 | 0.00 | 0.00 | 0.00 | 92 | |
| 20260507092954 | 63 | 126 | 2.6 | 5.2 | 0.00 | 0.00 | 0.00 | 92 | |
| 20260507092653 | 63 | 152 | 1.7 | 5.2 | 0.00 | 0.00 | 0.00 | 92 | |
| 20260507092355 | 63 | 116 | 1.7 | 3.5 | 0.00 | 0.00 | 0.00 | 91 | |
| 20260507092048 | 63 | 112 | 2.6 | 6.1 | 0.00 | 0.00 | 0.00 | 92 | |
| 20260507091752 | 63 | 116 | 1.7 | 5.2 | 0.00 | 0.00 | 0.00 | 93 | |
| 20260507091455 | 62 | 107 | 0.9 | 3.5 | 0.00 | 0.00 | 0.00 | 94 | |
| 20260507091148 | 62 | 146 | 0.9 | 6.1 | 0.00 | 0.00 | 0.00 | 95 | |
| 20260507090853 | 62 | 114 | 3.5 | 3.5 | 0.00 | 0.00 | 0.00 | 95 | |
| 20260507090556 | 62 | 125 | 1.7 | 3.5 | 0.00 | 0.00 | 0.00 | 95 | |
| 20260507090248 | 62 | 143 | 2.6 | 3.5 | 0.00 | 0.00 | 0.00 | 95 | |
| 20260507090005 | 62 | 121 | 2.6 | 7.0 | 0.00 | 0.00 | 0.00 | 95 | |
| 20260507085353 | 62 | 135 | 2.6 | 2.6 | 0.00 | 0.00 | 0.00 | 95 | |
| 20260507085058 | 62 | 122 | 1.7 | 3.5 | 0.00 | 0.00 | 0.00 | 95 | |
| 20260507084758 | 63 | 121 | 2.6 | 7.8 | 0.00 | 0.00 | 0.00 | 95 | |
| 20260507084456 | 63 | 113 | 1.7 | 3.5 | 0.00 | 0.00 | 0.00 | 95 | |
| 20260507084158 | 62 | 101 | 4.3 | 6.1 | 0.00 | 0.00 | 0.00 | 95 | |
| 20260507083852 | 62 | 137 | 2.6 | 7.0 | 0.00 | 0.00 | 0.00 | 95 | |
| 20260507083557 | 62 | 146 | 1.7 | 6.1 | 0.00 | 0.00 | 0.00 | 95 | |
| 20260507083251 | 62 | 111 | 3.5 | 3.5 | 0.00 | 0.00 | 0.00 | 95 | |
| 20260507082952 | 62 | 129 | 1.7 | 3.5 | 0.00 | 0.00 | 0.00 | 95 | |
| 20260507082656 | 62 | 113 | 1.7 | 3.5 | 0.00 | 0.00 | 0.00 | 95 | |
| 20260507082349 | 62 | 130 | 2.6 | 2.6 | 0.00 | 0.00 | 0.00 | 95 | |
| 20260507082058 | 62 | 149 | 0.9 | 6.1 | 0.00 | 0.00 | 0.00 | 95 | |
| 20260507081749 | 62 | 123 | 1.7 | 7.8 | 0.00 | 0.00 | 0.00 | 95 | |
| 20260507081453 | 63 | 117 | 0.9 | 3.5 | 0.00 | 0.00 | 0.00 | 95 | |
| 20260507081150 | 63 | 135 | 4.3 | 7.0 | 0.00 | 0.00 | 0.00 | 95 | |
| 20260507080851 | 62 | 163 | 2.6 | 5.2 | 0.00 | 0.00 | 0.00 | 95 | |
| 20260507080556 | 63 | 163 | 6.1 | 8.7 | 0.00 | 0.00 | 0.00 | 95 | |
| 20260507080250 | 63 | 106 | 0.9 | 3.5 | 0.00 | 0.00 | 0.00 | 95 | |
| 20260507080005 | 62 | 161 | 3.5 | 10.4 | 0.00 | 0.00 | 0.00 | 95 | |
| 20260507075349 | 63 | 136 | 1.7 | 3.5 | 0.00 | 0.00 | 0.00 | 95 | |
| 20260507075054 | 63 | 115 | 1.7 | 1.7 | 0.00 | 0.00 | 0.00 | 95 | |
| 20260507074758 | 63 | 116 | 2.6 | 5.2 | 0.00 | 0.00 | 0.00 | 95 | |
| 20260507074452 | 62 | 122 | 3.5 | 5.2 | 0.00 | 0.00 | 0.00 | 95 | |
| 20260507074157 | 62 | 128 | 2.6 | 5.2 | 0.00 | 0.00 | 0.00 | 95 | |
| 20260507073850 | 62 | 151 | 3.5 | 8.7 | 0.00 | 0.00 | 0.00 | 95 | |
| 20260507073554 | 62 | 114 | 5.2 | 9.6 | 0.00 | 0.00 | 0.00 | 95 | |
| 20260507073258 | 62 | 84 | 3.5 | 3.5 | 0.00 | 0.00 | 0.00 | 95 | |
| 20260507072951 | 62 | 136 | 2.6 | 3.5 | 0.00 | 0.00 | 0.00 | 95 | |
| 20260507072656 | 62 | 140 | 2.6 | 5.2 | 0.00 | 0.00 | 0.00 | 94 | |
| 20260507072350 | 62 | 108 | 2.6 | 3.5 | 0.00 | 0.00 | 0.00 | 94 | |
| 20260507072057 | 62 | 117 | 1.7 | 5.2 | 0.00 | 0.00 | 0.00 | 94 | |
| 20260507071758 | 62 | 124 | 3.5 | 3.5 | 0.00 | 0.00 | 0.00 | 93 | |
| 20260507071457 | 62 | 104 | 2.6 | 5.2 | 0.00 | 0.00 | 0.00 | 92 | |
| 20260507071150 | 63 | 123 | 0.9 | 2.6 | 0.00 | 0.00 | 0.00 | 91 | |
| 20260507070900 | 63 | 114 | 3.5 | 5.2 | 0.00 | 0.00 | 0.00 | 89 | |
| 20260507070554 | 63 | 106 | 1.7 | 7.0 | 0.00 | 0.00 | 0.00 | 89 | |
| 20260507070256 | 63 | 115 | 3.5 | 6.1 | 0.00 | 0.00 | 0.00 | 89 | |
| 20260507070001 | 63 | 121 | 2.6 | 3.5 | 0.00 | 0.00 | 0.00 | 88 | |
| 20260507065354 | 63 | 130 | 3.5 | 5.2 | 0.00 | 0.00 | 0.00 | 85 | |
| 20260507065054 | 63 | 128 | 3.5 | 5.2 | 0.00 | 0.00 | 0.00 | 85 | |
| 20260507064759 | 63 | 124 | 3.5 | 5.2 | 0.00 | 0.00 | 0.00 | 85 | |
| 20260507064451 | 63 | 111 | 4.3 | 6.1 | 0.00 | 0.00 | 0.00 | 85 | |
| 20260507064200 | 63 | 131 | 2.6 | 5.2 | 0.00 | 0.00 | 0.00 | 85 | |
| 20260507063853 | 63 | 113 | 2.6 | 7.8 | 0.00 | 0.00 | 0.00 | 85 | |
| 20260507063559 | 63 | 135 | 1.7 | 7.0 | 0.00 | 0.00 | 0.00 | 85 | |
| 20260507063254 | 63 | 126 | 1.7 | 6.1 | 0.00 | 0.00 | 0.00 | 85 | |
| 20260507062959 | 63 | 126 | 2.6 | 3.5 | 0.00 | 0.00 | 0.00 | 84 | |
| 20260507062652 | 63 | 141 | 3.5 | 5.2 | 0.00 | 0.00 | 0.00 | 85 | |
| 20260507062356 | 64 | 128 | 1.7 | 2.6 | 0.00 | 0.00 | 0.00 | 85 | |
| 20260507062100 | 64 | 154 | 3.5 | 8.7 | 0.00 | 0.00 | 0.00 | 85 | |
| 20260507061801 | 64 | 104 | 3.5 | 5.2 | 0.00 | 0.00 | 0.00 | 87 | |
| 20260507061452 | 63 | 101 | 2.6 | 3.5 | 0.00 | 0.00 | 0.00 | 89 | |
| 20260507061156 | 63 | 117 | 2.6 | 3.5 | 0.00 | 0.00 | 0.00 | 89 | |
| 20260507060900 | 63 | 124 | 2.6 | 3.5 | 0.00 | 0.00 | 0.00 | 88 | |
| 20260507060555 | 63 | 144 | 1.7 | 2.6 | 0.00 | 0.00 | 0.00 | 87 | |
| 20260507060253 | 63 | 142 | 1.7 | 5.2 | 0.00 | 0.00 | 0.00 | 86 | |
| 20260507060004 | 63 | 210 | 0.9 | 3.5 | 0.00 | 0.00 | 0.00 | 85 | |
| 20260507055358 | 64 | 111 | 2.6 | 2.6 | 0.00 | 0.00 | 0.00 | 84 | |
| 20260507055052 | 64 | 138 | 1.7 | 5.2 | 0.00 | 0.00 | 0.00 | 82 | |
| 20260507054754 | 64 | 135 | 1.7 | 6.1 | 0.00 | 0.00 | 0.00 | 83 | |
| 20260507054500 | 64 | 118 | 2.6 | 5.2 | 0.00 | 0.00 | 0.00 | 83 | |
| 20260507054153 | 64 | 122 | 3.5 | 3.5 | 0.00 | 0.00 | 0.00 | 83 | |
| 20260507053857 | 64 | 106 | 2.6 | 2.6 | 0.00 | 0.00 | 0.00 | 83 | |
| 20260507053603 | 64 | 128 | 3.5 | 7.0 | 0.00 | 0.00 | 0.00 | 82 | |
| 20260507053257 | 64 | 155 | 3.5 | 3.5 | 0.00 | 0.00 | 0.00 | 83 | |
| 20260507053001 | 64 | 137 | 2.6 | 3.5 | 0.00 | 0.00 | 0.00 | 83 | |
| 20260507052654 | 64 | 115 | 2.6 | 3.5 | 0.00 | 0.00 | 0.00 | 81 | |
| 20260507052358 | 64 | 127 | 2.6 | 5.2 | 0.00 | 0.00 | 0.00 | 80 | |
| 20260507052059 | 64 | 128 | 1.7 | 3.5 | 0.00 | 0.00 | 0.00 | 80 | |
| 20260507051759 | 64 | 124 | 1.7 | 3.5 | 0.00 | 0.00 | 0.00 | 81 | |
| 20260507051459 | 64 | 116 | 2.6 | 3.5 | 0.00 | 0.00 | 0.00 | 81 | |
| 20260507051154 | 64 | 129 | 1.7 | 6.1 | 0.00 | 0.00 | 0.00 | 81 | |
| 20260507050859 | 64 | 139 | 1.7 | 6.1 | 0.00 | 0.00 | 0.00 | 81 | |
| 20260507050603 | 64 | 131 | 2.6 | 5.2 | 0.00 | 0.00 | 0.00 | 81 | |
| 20260507050257 | 64 | 111 | 2.6 | 5.2 | 0.00 | 0.00 | 0.00 | 81 | |
| 20260507050002 | 64 | 152 | 2.6 | 3.5 | 0.00 | 0.00 | 0.00 | 81 | |
| 20260507045403 | 64 | 103 | 3.5 | 3.5 | 0.00 | 0.00 | 0.00 | 82 | |
| 20260507045056 | 64 | 136 | 1.7 | 2.6 | 0.00 | 0.00 | 0.00 | 83 | |
| 20260507044757 | 64 | 121 | 0.9 | 0.9 | 0.00 | 0.00 | 0.00 | 82 | |
| 20260507044502 | 64 | 118 | 1.7 | 1.7 | 0.00 | 0.00 | 0.00 | 81 | |
| 20260507044156 | 64 | 120 | 0.9 | 1.7 | 0.00 | 0.00 | 0.00 | 81 | |
| 20260507043901 | 64 | 117 | 1.7 | 1.7 | 0.00 | 0.00 | 0.00 | 81 | |
| 20260507043604 | 63 | 120 | 0.9 | 0.9 | 0.00 | 0.00 | 0.00 | 82 | |
| 20260507043257 | 63 | 118 | 0.9 | 1.7 | 0.00 | 0.00 | 0.00 | 82 | |
| 20260507043004 | 64 | 124 | 0.9 | 1.7 | 0.00 | 0.00 | 0.00 | 82 | |
| 20260507042702 | 64 | 124 | 0.9 | 1.7 | 0.00 | 0.00 | 0.00 | 82 | |
| 20260507042357 | 63 | 113 | 0.9 | 1.7 | 0.00 | 0.00 | 0.00 | 83 | |
| 20260507042100 | 63 | 110 | 0.9 | 1.7 | 0.00 | 0.00 | 0.00 | 84 | |
| 20260507041759 | 63 | 107 | 0.9 | 0.9 | 0.00 | 0.00 | 0.00 | 85 | |
| 20260507041502 | 63 | 106 | 0.0 | 0.9 | 0.00 | 0.00 | 0.00 | 86 | |
| 20260507041154 | 63 | 108 | 0.9 | 1.7 | 0.00 | 0.00 | 0.00 | 86 | |
| 20260507040858 | 63 | 107 | 0.9 | 0.9 | 0.00 | 0.00 | 0.00 | 86 | |
| 20260507040602 | 63 | 107 | 0.0 | 0.9 | 0.00 | 0.00 | 0.00 | 87 | |
| 20260507040255 | 63 | 107 | 0.9 | 0.9 | 0.00 | 0.00 | 0.00 | 86 | |
| 20260507040010 | 63 | 113 | 0.0 | 0.9 | 0.00 | 0.00 | 0.00 | 86 | |
| 20260507035356 | 63 | 115 | 0.9 | 0.9 | 0.00 | 0.00 | 0.00 | 86 | |
| 20260507035101 | 63 | 116 | 0.9 | 0.9 | 0.00 | 0.00 | 0.00 | 86 | |
| 20260507034756 | 63 | 117 | 0.9 | 0.9 | 0.00 | 0.00 | 0.00 | 86 | |
| 20260507034501 | 63 | 117 | 0.0 | 0.9 | 0.00 | 0.00 | 0.00 | 86 | |
| 20260507034155 | 63 | 118 | 0.9 | 1.7 | 0.00 | 0.00 | 0.00 | 87 | |
| 20260507033857 | 63 | 131 | 0.9 | 0.9 | 0.00 | 0.00 | 0.00 | 87 | |
| 20260507033601 | 63 | 132 | 0.0 | 0.9 | 0.00 | 0.00 | 0.00 | 86 | |
| 20260507033303 | 63 | 131 | 0.9 | 0.9 | 0.00 | 0.00 | 0.00 | 85 | |
| 20260507032956 | 64 | 133 | 0.0 | 0.9 | 0.00 | 0.00 | 0.00 | 84 | |
| 20260507032700 | 64 | 132 | 1.7 | 0.9 | 0.00 | 0.00 | 0.00 | 83 | |
| 20260507032354 | 64 | 149 | 0.9 | 0.9 | 0.00 | 0.00 | 0.00 | 82 | |
| 20260507032058 | 64 | 149 | 0.9 | 0.9 | 0.00 | 0.00 | 0.00 | 82 | |
| 20260507031802 | 63 | 178 | 0.9 | 1.7 | 0.00 | 0.00 | 0.00 | 83 | |
| 20260507031456 | 63 | 188 | 0.9 | 0.9 | 0.00 | 0.00 | 0.00 | 84 | |
| 20260507031202 | 64 | 188 | 0.9 | 1.7 | 0.00 | 0.00 | 0.00 | 83 | |
| 20260507030856 | 63 | 230 | 0.9 | 0.9 | 0.00 | 0.00 | 0.00 | 84 | |
| 20260507030559 | 63 | 231 | 0.9 | 0.9 | 0.00 | 0.00 | 0.00 | 85 | |
| 20260507030304 | 63 | 231 | 0.0 | 0.9 | 0.00 | 0.00 | 0.00 | 84 | |
| 20260507030008 | 64 | 231 | 0.0 | 0.9 | 0.00 | 0.00 | 0.00 | 84 | |
| 20260507025357 | 63 | 231 | 0.0 | 0.0 | 0.00 | 0.00 | 0.00 | 84 | |
| 20260507025100 | 63 | 231 | 0.0 | 0.9 | 0.00 | 0.00 | 0.00 | 85 | |
| 20260507024803 | 63 | 231 | 0.0 | 0.9 | 0.00 | 0.00 | 0.00 | 85 | |
| 20260507024458 | 63 | 231 | 0.0 | 0.0 | 0.00 | 0.00 | 0.00 | 85 | |
| 20260507024202 | 63 | 231 | 0.9 | 0.9 | 0.00 | 0.00 | 0.00 | 86 | |
| 20260507023856 | 63 | 231 | 0.0 | 0.0 | 0.00 | 0.00 | 0.00 | 86 | |
| 20260507023602 | 63 | 231 | 0.0 | 0.0 | 0.00 | 0.00 | 0.00 | 86 | |
| 20260507023256 | 63 | 231 | 0.0 | 0.0 | 0.00 | 0.00 | 0.00 | 86 | |
| 20260507023000 | 63 | 231 | 0.0 | 0.9 | 0.00 | 0.00 | 0.00 | 86 | |
| 20260507022705 | 63 | 230 | 0.0 | 0.0 | 0.00 | 0.00 | 0.00 | 86 | |
| 20260507022359 | 63 | 231 | 0.0 | 0.0 | 0.00 | 0.00 | 0.00 | 86 | |
| 20260507022103 | 63 | 231 | 1.7 | 1.7 | 0.00 | 0.00 | 0.00 | 86 | |
| 20260507021757 | 64 | 231 | 0.9 | 0.9 | 0.00 | 0.00 | 0.00 | 85 | |
| 20260507021502 | 64 | 232 | 0.0 | 0.9 | 0.00 | 0.00 | 0.00 | 84 | |
| 20260507021156 | 63 | 232 | 0.0 | 0.9 | 0.00 | 0.00 | 0.00 | 83 | |
| 20260507020902 | 64 | 232 | 0.0 | 0.9 | 0.00 | 0.00 | 0.00 | 83 | |
| 20260507020605 | 64 | 232 | 0.0 | 0.0 | 0.00 | 0.00 | 0.00 | 83 | |
| 20260507020259 | 64 | 232 | 0.0 | 0.9 | 0.00 | 0.00 | 0.00 | 82 | |
| 20260507020003 | 64 | 232 | 0.0 | 0.0 | 0.00 | 0.00 | 0.00 | 82 | |
| 20260507015402 | 64 | 232 | 0.0 | 0.9 | 0.00 | 0.00 | 0.00 | 83 | |
| 20260507015104 | 64 | 232 | 0.0 | 0.9 | 0.00 | 0.00 | 0.00 | 83 | |
| 20260507014758 | 64 | 232 | 0.0 | 0.0 | 0.00 | 0.00 | 0.00 | 82 | |
| 20260507014503 | 64 | 232 | 0.0 | 0.0 | 0.00 | 0.00 | 0.00 | 81 | |
| 20260507014157 | 64 | 232 | 0.9 | 0.9 | 0.00 | 0.00 | 0.00 | 81 | |
| 20260507013900 | 64 | 232 | 0.9 | 0.9 | 0.00 | 0.00 | 0.00 | 80 | |
| 20260507013601 | 64 | 232 | 0.9 | 0.9 | 0.00 | 0.00 | 0.00 | 79 | |
| 20260507013307 | 64 | 232 | 0.0 | 0.0 | 0.00 | 0.00 | 0.00 | 78 | |
| 20260507013000 | 64 | 232 | 0.0 | 0.9 | 0.00 | 0.00 | 0.00 | 78 | |
| 20260507012703 | 64 | 232 | 0.0 | 0.0 | 0.00 | 0.00 | 0.00 | 78 | |
| 20260507012407 | 64 | 232 | 0.0 | 0.9 | 0.00 | 0.00 | 0.00 | 80 | |
| 20260507012101 | 64 | 232 | 0.9 | 0.9 | 0.00 | 0.00 | 0.00 | 81 | |
| 20260507011807 | 64 | 232 | 0.9 | 1.7 | 0.00 | 0.00 | 0.00 | 79 | |
| 20260507011459 | 64 | 232 | 0.0 | 0.0 | 0.00 | 0.00 | 0.00 | 77 | |
| 20260507011202 | 65 | 232 | 0.0 | 0.0 | 0.00 | 0.00 | 0.00 | 77 | |
| 20260507010906 | 65 | 227 | 0.9 | 0.9 | 0.00 | 0.00 | 0.00 | 77 | |
| 20260507010559 | 65 | 225 | 0.0 | 0.0 | 0.00 | 0.00 | 0.00 | 76 | |
| 20260507010303 | 65 | 225 | 0.9 | 0.9 | 0.00 | 0.00 | 0.00 | 75 | |
| 20260507010005 | 65 | 225 | 0.9 | 0.9 | 0.00 | 0.00 | 0.00 | 75 | |
| 20260507005402 | 66 | 225 | 1.7 | 1.7 | 0.00 | 0.00 | 0.00 | 76 |